Regional Weather Roundup
Issued by NWS

Home | Current Version | Previous Version | Text Only | Print | Product List | Glossary Off
Versions: 1 2 3 4 5 6 7 8 9 10 11 12 13 14 15 16 17 18 19 20 21 22 23 24 25 26 27 28 29 30 31 32 33 34 35 36 37 38 39 40 41 42 43 44 45 46 47 48 49 50

000
ASUS43 KBIS 292210
RWRND

NORTH DAKOTA REGIONAL WEATHER ROUNDUP
NATIONAL WEATHER SERVICE BISMARCK ND
500 PM CDT FRI AUG 29 2014

NOTE: "FAIR" INDICATES FEW OR NO CLOUDS BELOW 12,000 FEET WITH NO
SIGNIFICANT WEATHER AND/OR OBSTRUCTIONS TO VISIBILITY.


NDZ001>003-009>011-017-292300-
NORTHWEST NORTH DAKOTA

CITY           SKY/WX    TMP DP  RH WIND       PRES   REMARKS
WILLISTON      CLOUDY    72  47  40 NE8       29.97S
MINOT          MOSUNNY   69  51  52 NW13      29.94R
MINOT AFB      PTSUNNY   69  51  54 N9        29.94R
$$

NDZ018>021-031>035-040>046-292300-
SOUTHWEST NORTH DAKOTA

CITY           SKY/WX    TMP DP  RH WIND       PRES   REMARKS
BISMARCK       CLOUDY    71  57  61 N10       29.92R
DICKINSON      CLOUDY    68  55  63 N10       29.97S
GARRISON         N/A     70  53  54 NE14G21   29.94R
HETTINGER ARPT MOSUNNY   69  54  58 N12       29.98S
$$

NDZ004>008-012>016-024-026-027-054-292300-
NORTHEAST NORTH DAKOTA

CITY           SKY/WX    TMP DP  RH WIND       PRES   REMARKS
GRAND FORKS    CLOUDY    64  61  88 N20G28    29.78R
GRND FRKS AFB  CLOUDY    64  60  89 N20G31    29.81R
DEVILS LAKE    CLOUDY    64  52  63 N21G29    29.87R
$$

NDZ022-023-025-028>030-036>039-047>053-292300-
SOUTHEAST NORTH DAKOTA

CITY           SKY/WX    TMP DP  RH WIND       PRES   REMARKS
FARGO          CLOUDY    76  65  68 SW3       29.75S
JAMESTOWN      CLOUDY    65  60  84 NW16G24   29.83R
$$



USA.gov is the U.S. government's official web portal to all federal, state and local government web resources and services.